Find Starlink 36467

NORAD ID: 67348 Int'l Des: 2026-003 Owner: SPXS Country: US Constellation: starlink operational
LEOCIRCULAR

現在のビュー

3D地球を読み込み中...

Starlink 36467について

説明を読み込み中...

次回通過

Passes for default location (London). Set your location on the main map for personalized predictions.

高度履歴

Loading altitude history...

軌道要素

1 67348U 26003Q 26149.32202610 .00039195 00000-0 14256-2 0 9994
2 67348 42.9999 131.8621 0001432 266.1704 93.8984 15.27595083 21155
Epoch: May 29, 2026 • Age: 17 hours

現在のステータス

高度 491.6 km
速度 7.62 km/s
衛星直下点 -33.87°S, 176.69°W
打ち上げ日 Jan 9, 2026
運用期間 0.3 years
タイプ internet

技術仕様

分類 Payload
質量 575.00 kg
乾燥質量 530.00 kg
総質量 575.00 kg
長さ 0.30 m
直径 4.10 m
スパン 29.00 m
形状 Box + pan
製造者 SPXS
バスタイプ Starlink V2MO
フェーズステータス In Orbit
所有者/国 SPXS/US

Most Searched